This demonstration page uses our WeatherBlox Daily Observations layout. Learn more.

Left ArrowRight Arrow

36.19886, -115.1175

Hourly Observations for October 17, 2020

Temp ( °F °C ) Dew Point ( °F °C ) Humidity (%) Winds ( mph kmh ) Pressure ( in mb ) Visibility ( mi km ) Precip ( " mm )
12:53 am 00:53 Clear 73 22.8 17 -8.3 12 12 NNW 9 15 29.96 1015 10 16 0.00 0.00
1:53 am 01:53 Clear 74 23.3 16 -8.9 11 11 NW 16 26 29.96 1014 10 16 0.00 0.00
2:53 am 02:53 Clear 70 21.1 19 -7.2 14 14 NW 10 17 29.96 1014 10 16 0.00 0.00
3:53 am 03:53 Clear 70 21.1 17 -8.3 13 13 NNW 8 13 29.95 1014 10 16 0.00 0.00
4:53 am 04:53 Clear 67 19.4 21 -6.1 17 17 WNW 12 19 29.95 1014 10 16 0.00 0.00
5:53 am 05:53 Clear 69 20.6 18 -7.8 14 14 NNW 7 11 29.96 1014 10 16 0.00 0.00
6:53 am 06:53 Sunny 67 19.4 18 -7.8 15 15 N 7 11 29.98 1015 10 16 0.00 0.00
7:53 am 07:53 Sunny 68 20 21 -6.1 17 17 W 7 11 30.01 1016 10 16 0.00 0.00
8:53 am 08:53 Sunny 74 23.3 19 -7.2 12 12 NNE 5 7 30.02 1017 10 16 0.00 0.00
9:53 am 09:53 Sunny 78 25.6 21 -6.1 12 12 WNW 3 6 30.02 1017 10 16 0.00 0.00
10:53 am 10:53 Sunny 81 27.2 22 -5.6 11 11 ESE 3 6 30.02 1017 10 16 0.00 0.00
11:53 am 11:53 Sunny 83 28.3 22 -5.6 10 10 Calm 30.00 1016 10 16 0.00 0.00
12:53 pm 12:53 Sunny 86 30 23 -5 10 10 SE 5 7 29.98 1015 10 16 0.00 0.00
1:53 pm 13:53 Sunny 88 31.1 23 -5 9 9 SSE 8 13 29.94 1014 10 16 0.00 0.00
2:53 pm 14:53 Sunny 90 32.2 23 -5 9 9 S 6 9 29.91 1013 10 16 0.00 0.00
3:53 pm 15:53 Sunny 90 32.2 21 -6.1 8 8 ESE 5 7 29.89 1012 10 16 0.00 0.00
4:53 pm 16:53 Sunny 91 32.8 20 -6.7 7 7 S 3 6 29.88 1012 10 16 0.00 0.00
5:53 pm 17:53 Sunny 89 31.7 21 -6.1 8 8 Calm 29.87 1012 10 16 0.00 0.00
6:53 pm 18:53 Clear 84 28.9 24 -4.4 11 11 Calm 29.88 1012 10 16 0.00 0.00
7:53 pm 19:53 Clear 78 25.6 27 -2.8 15 15 WNW 5 7 29.91 1013 10 16 0.00 0.00
8:53 pm 20:53 Clear 78 25.6 29 -1.7 16 16 W 5 7 29.91 1013 10 16 0.00 0.00
9:53 pm 21:53 Clear 73 22.8 28 -2.2 19 19 WNW 5 7 29.92 1013 10 16 0.00 0.00
10:53 pm 22:53 Clear 71 21.7 29 -1.7 21 21 WNW 6 9 29.92 1013 10 16 0.00 0.00
11:53 pm 23:53 Clear 70 21.1 27 -2.8 20 20 N 5 7 29.92 1013 10 16 0.00 0.00

Powered by AerisWeather